Time,TemperatureF,DewpointF,PressureIn,WindDirection,WindDirectionDegrees,WindSpeedMPH,WindSpeedGustMPH,Humidity,HourlyPrecipIn,Conditions,Clouds,dailyrainin,SoftwareType,DateUTC
2013-09-01 00:01:00,71.6,71.0,29.76,SSE,166,0.0,1.0,97,0.00,,,0.00,weatherlink.com 1.10,2013-09-01 04:01:00,
2013-09-01 00:16:00,71.3,70.0,29.76,ESE,115,0.0,2.0,96,0.00,,,0.00,weatherlink.com 1.10,2013-09-01 04:16:00,
2013-09-01 00:31:00,70.9,70.0,29.76,ESE,115,0.0,0.0,97,0.00,,,0.00,weatherlink.com 1.10,2013-09-01 04:31:00,
2013-09-01 00:46:00,70.3,69.0,29.76,ESE,115,0.0,0.0,97,0.00,,,0.00,weatherlink.com 1.10,2013-09-01 04:46:00,
2013-09-01 01:02:00,69.4,68.0,29.76,ESE,115,0.0,1.0,96,0.00,,,0.00,weatherlink.com 1.10,2013-09-01 05:02:00,
2013-09-01 01:17:00,68.9,68.0,29.75,ESE,115,0.0,0.0,97,0.00,,,0.00,weatherlink.com 1.10,2013-09-01 05:17:00,
2013-09-01 01:32:00,68.5,68.0,29.75,ESE,115,1.0,1.0,97,0.00,,,0.00,weatherlink.com 1.10,2013-09-01 05:32:00,
2013-09-01 01:47:00,67.9,67.0,29.74,ESE,115,0.0,1.0,97,0.00,,,0.00,weatherlink.com 1.10,2013-09-01 05:47:00,
2013-09-01 02:02:00,68.3,68.0,29.74,ESE,115,0.0,2.0,98,0.00,,,0.00,weatherlink.com 1.10,2013-09-01 06:02:00,
2013-09-01 02:17:00,67.9,67.0,29.74,ESE,115,0.0,2.0,98,0.00,,,0.00,weatherlink.com 1.10,2013-09-01 06:17:00,
2013-09-01 02:32:00,67.7,67.0,29.74,ESE,115,0.0,2.0,98,0.00,,,0.00,weatherlink.com 1.10,2013-09-01 06:32:00,
2013-09-01 02:47:00,67.1,67.0,29.73,ESE,115,0.0,0.0,98,0.00,,,0.00,weatherlink.com 1.10,2013-09-01 06:47:00,
2013-09-01 03:02:00,66.8,66.0,29.72,ESE,115,0.0,0.0,98,0.00,,,0.00,weatherlink.com 1.10,2013-09-01 07:02:00,
2013-09-01 03:17:00,66.6,66.0,29.72,ESE,115,1.0,2.0,98,0.00,,,0.00,weatherlink.com 1.10,2013-09-01 07:17:00,
2013-09-01 03:32:00,67.0,67.0,29.73,ESE,115,0.0,2.0,99,0.00,,,0.00,weatherlink.com 1.10,2013-09-01 07:32:00,
2013-09-01 03:47:00,67.0,67.0,29.73,ESE,115,0.0,0.0,99,0.01,,,0.01,weatherlink.com 1.10,2013-09-01 07:47:00,
2013-09-01 04:02:00,66.1,66.0,29.73,ESE,115,0.0,1.0,98,0.01,,,0.01,weatherlink.com 1.10,2013-09-01 08:02:00,
2013-09-01 04:17:00,66.2,66.0,29.73,ESE,115,0.0,1.0,99,0.01,,,0.01,weatherlink.com 1.10,2013-09-01 08:17:00,
2013-09-01 04:32:00,66.6,66.0,29.73,ESE,115,1.0,3.0,99,0.01,,,0.01,weatherlink.com 1.10,2013-09-01 08:32:00,
2013-09-01 04:47:00,66.1,66.0,29.74,ESE,115,0.0,0.0,99,0.00,,,0.01,weatherlink.com 1.10,2013-09-01 08:47:00,
2013-09-01 05:02:00,66.6,66.0,29.74,ESE,115,0.0,0.0,99,0.00,,,0.01,weatherlink.com 1.10,2013-09-01 09:02:00,
2013-09-01 05:17:00,66.8,67.0,29.74,ESE,115,0.0,0.0,99,0.00,,,0.01,weatherlink.com 1.10,2013-09-01 09:17:00,
2013-09-01 05:32:00,66.7,66.0,29.73,ESE,115,0.0,0.0,99,0.00,,,0.01,weatherlink.com 1.10,2013-09-01 09:32:00,
2013-09-01 05:47:00,66.6,66.0,29.73,ESE,115,0.0,0.0,99,0.00,,,0.01,weatherlink.com 1.10,2013-09-01 09:47:00,
2013-09-01 06:02:00,66.5,66.0,29.73,ESE,115,0.0,0.0,99,0.00,,,0.01,weatherlink.com 1.10,2013-09-01 10:02:00,
2013-09-01 06:17:00,66.2,66.0,29.72,ESE,115,0.0,0.0,99,0.00,,,0.01,weatherlink.com 1.10,2013-09-01 10:17:00,
2013-09-01 06:32:00,65.9,66.0,29.73,ESE,115,0.0,1.0,99,0.00,,,0.01,weatherlink.com 1.10,2013-09-01 10:32:00,
2013-09-01 06:47:00,65.7,65.0,29.73,ESE,115,0.0,0.0,99,0.00,,,0.01,weatherlink.com 1.10,2013-09-01 10:47:00,
2013-09-01 07:02:00,65.5,65.0,29.73,ESE,115,0.0,0.0,99,0.00,,,0.01,weatherlink.com 1.10,2013-09-01 11:02:00,
2013-09-01 07:17:00,65.3,65.0,29.73,ESE,115,0.0,0.0,99,0.00,,,0.01,weatherlink.com 1.10,2013-09-01 11:17:00,
2013-09-01 07:32:00,64.9,65.0,29.74,ESE,115,0.0,0.0,99,0.00,,,0.01,weatherlink.com 1.10,2013-09-01 11:32:00,
2013-09-01 07:47:00,64.9,65.0,29.73,ESE,115,2.0,3.0,99,0.00,,,0.01,weatherlink.com 1.10,2013-09-01 11:47:00,
2013-09-01 08:02:00,65.9,66.0,29.73,ESE,115,0.0,3.0,99,0.00,,,0.01,weatherlink.com 1.10,2013-09-01 12:02:00,
2013-09-01 08:17:00,67.5,68.0,29.74,ESE,120,1.0,3.0,100,0.00,,,0.01,weatherlink.com 1.10,2013-09-01 12:17:00,
2013-09-01 08:32:00,67.7,67.0,29.74,SE,130,0.0,4.0,99,0.00,,,0.01,weatherlink.com 1.10,2013-09-01 12:32:00,
2013-09-01 08:47:00,68.1,68.0,29.74,SE,138,0.0,4.0,99,0.00,,,0.01,weatherlink.com 1.10,2013-09-01 12:47:00,
2013-09-01 09:02:00,68.5,68.0,29.74,SSE,162,3.0,4.0,99,0.00,,,0.01,weatherlink.com 1.10,2013-09-01 13:02:00,
2013-09-01 09:17:00,68.6,68.0,29.74,SSW,193,0.0,4.0,99,0.00,,,0.01,weatherlink.com 1.10,2013-09-01 13:17:00,
2013-09-01 09:32:00,69.4,69.0,29.73,WSW,255,0.0,3.0,100,0.00,,,0.01,weatherlink.com 1.10,2013-09-01 13:32:00,
2013-09-01 09:47:00,70.2,70.0,29.73,South,179,1.0,4.0,100,0.00,,,0.01,weatherlink.com 1.10,2013-09-01 13:47:00,
2013-09-01 10:02:00,70.4,70.0,29.73,South,169,3.0,4.0,99,0.00,,,0.01,weatherlink.com 1.10,2013-09-01 14:02:00,
2013-09-01 10:17:00,70.6,70.0,29.74,SSW,196,2.0,3.0,99,0.00,,,0.01,weatherlink.com 1.10,2013-09-01 14:17:00,
2013-09-01 10:32:00,70.7,70.0,29.73,SW,219,0.0,5.0,99,0.00,,,0.01,weatherlink.com 1.10,2013-09-01 14:32:00,
2013-09-01 10:47:00,71.2,71.0,29.75,South,180,1.0,6.0,98,0.00,,,0.01,weatherlink.com 1.10,2013-09-01 14:47:00,
2013-09-01 11:02:00,71.9,71.0,29.74,South,179,0.0,6.0,97,0.00,,,0.01,weatherlink.com 1.10,2013-09-01 15:02:00,
2013-09-01 11:17:00,72.6,71.0,29.75,WSW,243,0.0,6.0,95,0.00,,,0.01,weatherlink.com 1.10,2013-09-01 15:17:00,
2013-09-01 11:32:00,72.7,71.0,29.74,WSW,243,0.0,5.0,94,0.00,,,0.01,weatherlink.com 1.10,2013-09-01 15:32:00,
2013-09-01 11:47:00,72.7,71.0,29.74,South,182,1.0,4.0,93,0.00,,,0.01,weatherlink.com 1.10,2013-09-01 15:47:00,
2013-09-01 12:02:00,72.8,71.0,29.75,South,179,0.0,4.0,94,0.00,,,0.01,weatherlink.com 1.10,2013-09-01 16:02:00,
2013-09-01 12:17:00,72.9,71.0,29.76,SSE,164,0.0,5.0,94,0.00,,,0.01,weatherlink.com 1.10,2013-09-01 16:17:00,
2013-09-01 12:32:00,73.0,71.0,29.76,SSE,162,1.0,3.0,94,0.00,,,0.01,weatherlink.com 1.10,2013-09-01 16:32:00,
2013-09-01 12:47:00,73.4,71.0,29.75,West,265,1.0,4.0,92,0.00,,,0.01,weatherlink.com 1.10,2013-09-01 16:47:00,
2013-09-01 13:02:00,73.5,71.0,29.74,SSW,202,1.0,5.0,93,0.00,,,0.01,weatherlink.com 1.10,2013-09-01 17:02:00,
2013-09-01 13:17:00,74.7,73.0,29.74,SE,135,3.0,6.0,93,0.00,,,0.01,weatherlink.com 1.10,2013-09-01 17:17:00,
2013-09-01 13:32:00,76.0,73.0,29.74,West,261,1.0,7.0,90,0.00,,,0.01,weatherlink.com 1.10,2013-09-01 17:32:00,
2013-09-01 13:47:00,77.1,73.0,29.74,SSE,152,3.0,7.0,87,0.00,,,0.01,weatherlink.com 1.10,2013-09-01 17:47:00,
2013-09-01 14:02:00,77.3,73.0,29.74,SSW,193,1.0,6.0,87,0.00,,,0.01,weatherlink.com 1.10,2013-09-01 18:02:00,
2013-09-01 14:18:00,78.2,73.0,29.73,South,184,3.0,7.0,83,0.00,,,0.01,weatherlink.com 1.10,2013-09-01 18:18:00,
2013-09-01 14:33:00,78.7,73.0,29.74,SSW,192,0.0,5.0,82,0.00,,,0.01,weatherlink.com 1.10,2013-09-01 18:33:00,
2013-09-01 14:48:00,78.8,73.0,29.74,SSW,201,1.0,5.0,82,0.00,,,0.01,weatherlink.com 1.10,2013-09-01 18:48:00,
2013-09-01 15:03:00,79.6,73.0,29.73,South,170,2.0,6.0,79,0.00,,,0.01,weatherlink.com 1.10,2013-09-01 19:03:00,
2013-09-01 15:18:00,80.0,73.0,29.73,South,182,2.0,5.0,79,0.00,,,0.01,weatherlink.com 1.10,2013-09-01 19:18:00,
2013-09-01 15:33:00,79.6,73.0,29.73,SW,236,3.0,4.0,79,0.00,,,0.01,weatherlink.com 1.10,2013-09-01 19:33:00,
2013-09-01 15:48:00,79.5,74.0,29.72,South,178,1.0,5.0,82,0.00,,,0.01,weatherlink.com 1.10,2013-09-01 19:48:00,
2013-09-01 16:03:00,79.9,73.0,29.71,South,173,0.0,4.0,80,0.00,,,0.01,weatherlink.com 1.10,2013-09-01 20:03:00,
2013-09-01 16:18:00,79.4,73.0,29.71,SE,134,0.0,3.0,80,0.00,,,0.01,weatherlink.com 1.10,2013-09-01 20:18:00,
2013-09-01 16:33:00,79.0,73.0,29.71,SSW,198,0.0,6.0,82,0.00,,,0.01,weatherlink.com 1.10,2013-09-01 20:33:00,
2013-09-01 16:48:00,79.8,74.0,29.71,SSW,213,0.0,5.0,81,0.00,,,0.01,weatherlink.com 1.10,2013-09-01 20:48:00,
2013-09-01 17:03:00,78.8,73.0,29.71,SSE,168,0.0,4.0,82,0.00,,,0.01,weatherlink.com 1.10,2013-09-01 21:03:00,
2013-09-01 17:18:00,78.5,73.0,29.71,SSW,202,0.0,4.0,84,0.00,,,0.01,weatherlink.com 1.10,2013-09-01 21:18:00,
2013-09-01 17:33:00,78.4,73.0,29.71,SSE,155,0.0,4.0,83,0.00,,,0.01,weatherlink.com 1.10,2013-09-01 21:33:00,
2013-09-01 17:48:00,78.8,73.0,29.71,SSW,211,0.0,4.0,83,0.00,,,0.01,weatherlink.com 1.10,2013-09-01 21:48:00,
2013-09-01 18:03:00,79.0,73.0,29.70,West,262,0.0,3.0,82,0.00,,,0.01,weatherlink.com 1.10,2013-09-01 22:03:00,
2013-09-01 18:18:00,78.4,73.0,29.70,WSW,241,0.0,4.0,84,0.00,,,0.01,weatherlink.com 1.10,2013-09-01 22:18:00,
2013-09-01 18:33:00,78.5,73.0,29.70,SW,224,0.0,6.0,83,0.00,,,0.01,weatherlink.com 1.10,2013-09-01 22:33:00,
2013-09-01 18:48:00,78.3,73.0,29.70,SE,146,2.0,4.0,84,0.00,,,0.01,weatherlink.com 1.10,2013-09-01 22:48:00,
2013-09-01 19:03:00,78.6,73.0,29.70,SSE,168,4.0,7.0,83,0.00,,,0.01,weatherlink.com 1.10,2013-09-01 23:03:00,
2013-09-01 19:18:00,78.3,73.0,29.71,South,184,0.0,4.0,84,0.00,,,0.01,weatherlink.com 1.10,2013-09-01 23:18:00,
2013-09-01 19:33:00,77.1,72.0,29.71,SSW,194,0.0,5.0,85,0.00,,,0.01,weatherlink.com 1.10,2013-09-01 23:33:00,
2013-09-01 19:48:00,76.0,72.0,29.71,WSW,247,0.0,2.0,88,0.00,,,0.01,weatherlink.com 1.10,2013-09-01 23:48:00,
2013-09-01 20:03:00,75.3,72.0,29.71,WSW,246,0.0,2.0,89,0.00,,,0.01,weatherlink.com 1.10,2013-09-02 00:03:00,
2013-09-01 20:18:00,74.6,72.0,29.72,South,190,0.0,4.0,90,0.00,,,0.01,weatherlink.com 1.10,2013-09-02 00:18:00,
2013-09-01 20:33:00,73.8,71.0,29.72,SSE,149,0.0,2.0,91,0.00,,,0.01,weatherlink.com 1.10,2013-09-02 00:33:00,
2013-09-01 20:48:00,73.3,71.0,29.73,WNW,285,0.0,2.0,93,0.00,,,0.01,weatherlink.com 1.10,2013-09-02 00:48:00,
2013-09-01 21:03:00,72.8,71.0,29.74,ESE,121,0.0,3.0,94,0.00,,,0.01,weatherlink.com 1.10,2013-09-02 01:03:00,
2013-09-01 21:18:00,72.4,71.0,29.74,SSW,198,1.0,1.0,94,0.00,,,0.01,weatherlink.com 1.10,2013-09-02 01:18:00,
2013-09-01 21:33:00,72.1,71.0,29.74,SW,228,0.0,2.0,95,0.00,,,0.01,weatherlink.com 1.10,2013-09-02 01:33:00,
2013-09-01 21:48:00,71.9,71.0,29.74,WSW,248,0.0,1.0,95,0.00,,,0.01,weatherlink.com 1.10,2013-09-02 01:48:00,
2013-09-01 22:03:00,71.6,70.0,29.74,SSE,149,0.0,1.0,96,0.00,,,0.01,weatherlink.com 1.10,2013-09-02 02:03:00,
2013-09-01 22:18:00,71.5,70.0,29.73,East,98,0.0,1.0,96,0.00,,,0.01,weatherlink.com 1.10,2013-09-02 02:18:00,
2013-09-01 22:33:00,71.6,70.0,29.73,West,260,0.0,3.0,96,0.00,,,0.01,weatherlink.com 1.10,2013-09-02 02:33:00,
2013-09-01 22:48:00,71.7,71.0,29.73,WSW,254,0.0,4.0,96,0.00,,,0.01,weatherlink.com 1.10,2013-09-02 02:48:00,
2013-09-01 23:03:00,71.8,71.0,29.73,SSE,159,0.0,3.0,96,0.00,,,0.01,weatherlink.com 1.10,2013-09-02 03:03:00,
2013-09-01 23:18:00,71.7,71.0,29.73,West,271,0.0,3.0,96,0.00,,,0.01,weatherlink.com 1.10,2013-09-02 03:18:00,
2013-09-01 23:33:00,71.4,70.0,29.74,West,271,0.0,1.0,95,0.00,,,0.01,weatherlink.com 1.10,2013-09-02 03:33:00,
2013-09-01 23:48:00,70.9,70.0,29.73,West,271,0.0,0.0,95,0.00,,,0.01,weatherlink.com 1.10,2013-09-02 03:48:00,